Jamestown, NY

4:19 AM EDT on June 28, 2017 (GMT -0400)
Chautauqua County-Jamestown

Weather History for KJHW - June, 2014

Change the Weather History Date:

Monday, June 9, 2014

  Actual Average Record
Temperature  
Mean Temperature 62 °F -  
Max Temperature 69 °F 73 °F 87 °F (2008)
Min Temperature 55 °F 47 °F 30 °F (1983)
Degree Days  
Heating Degree Days 3    
Growing Degree Days 12 (Base 50)    
Moisture  
Dew Point 57 °F    
Average Humidity 84    
Maximum Humidity 94    
Minimum Humidity 68    
Precipitation  
Precipitation 0.00 in - - ()
Sea Level Pressure  
Sea Level Pressure 29.96 in    
Wind  
Wind Speed 7 mph (NNE)    
Max Wind Speed 13 mph    
Max Gust Speed 16 mph    
Visibility 8 miles    
Events      
Averages and records for this station are not official NWS values.
T = Trace of Precipitation, MM = Missing Value Source: NWS Daily Summary

Daily Weather History Graph

Daily Weather History Graph

Search for Another Location

Airport or City:

Trip Planner

Search our weather history database for the weather conditions in past years. The results will help you decide how hot, cold, wet, or windy it might be!

Date:

Astronomy

Jun. 09, 2014 Rise Set
Actual Time 5:40 AM EDT 8:52 PM EDT
Civil Twilight 5:06 AM EDT 9:26 PM EDT
Nautical Twilight 4:22 AM EDT 10:10 PM EDT
Astronomical Twilight 3:29 AM EDT 11:03 PM EDT
Moon 5:07 PM EDT (6/9) 3:11 AM EDT (6/9)
Length of Visible Light 16h 19m
Length of Day
15h 11m
Waxing Gibbous, 85% of the Moon is Illuminated
Jun 9
Waxing Gibbous
Jun 13
Full
Jun 19
Last Quarter
Jun 27
New
Jul 5
First Quarter

Hourly Weather History & Observations

Time (EDT) Temp. Dew Point Humidity Pressure Visibility Wind Dir Wind Speed Gust Speed Precip Events Conditions
12:15 AM 57.2 °F 55.4 °F 94% 29.92 in 10.0 mi North 6.9 mph 16.1 mph N/A   Overcast
12:35 AM 57.2 °F 55.4 °F 94% 29.93 in 10.0 mi North 6.9 mph - N/A   Overcast
12:55 AM 57.2 °F 55.4 °F 94% 29.93 in 10.0 mi North 5.8 mph - N/A   Overcast
1:15 AM 57.2 °F 55.4 °F 94% 29.93 in 10.0 mi North 6.9 mph - N/A   Overcast
1:35 AM 57.2 °F 55.4 °F 94% 29.93 in 10.0 mi North 5.8 mph - N/A   Overcast
1:55 AM 57.2 °F 55.4 °F 94% 29.93 in 10.0 mi North 6.9 mph - N/A   Overcast
2:15 AM 57.2 °F 53.6 °F 88% 29.94 in 10.0 mi NNW 6.9 mph - N/A   Overcast
2:35 AM 57.2 °F 53.6 °F 88% 29.93 in 8.0 mi North 8.1 mph - N/A   Overcast
2:55 AM 55.4 °F 53.6 °F 94% 29.93 in 7.0 mi NNW 8.1 mph - N/A   Overcast
3:15 AM 55.4 °F 53.6 °F 94% 29.94 in 1.8 mi NNW 9.2 mph - N/A   Overcast
3:35 AM 55.4 °F 53.6 °F 94% 29.94 in 3.0 mi NNW 8.1 mph - N/A   Overcast
3:55 AM 55.4 °F 53.6 °F 94% 29.93 in 0.5 mi NNW 11.5 mph - N/A   Overcast
4:15 AM 55.4 °F 53.6 °F 94% 29.94 in 0.2 mi North 11.5 mph - N/A   Overcast
4:35 AM 55.4 °F 53.6 °F 94% 29.95 in 0.2 mi North 9.2 mph - N/A   Overcast
4:55 AM 55.4 °F 53.6 °F 94% 29.95 in 0.8 mi North 9.2 mph - N/A   Overcast
5:15 AM 55.4 °F 53.6 °F 94% 29.95 in 2.5 mi North 8.1 mph - N/A   Overcast
5:35 AM 55.4 °F 53.6 °F 94% 29.95 in 1.8 mi North 8.1 mph - N/A   Overcast
5:55 AM 55.4 °F 53.6 °F 94% 29.96 in 1.0 mi North 8.1 mph - N/A   Overcast
6:15 AM 55.4 °F 53.6 °F 94% 29.96 in 0.8 mi North 8.1 mph - N/A   Overcast
6:35 AM 55.4 °F 53.6 °F 94% 29.96 in 1.2 mi North 8.1 mph - N/A   Overcast
6:55 AM 55.4 °F 53.6 °F 94% 29.96 in 1.5 mi North 8.1 mph - N/A   Overcast
7:15 AM 55.4 °F 53.6 °F 94% 29.96 in 1.8 mi North 8.1 mph - N/A   Overcast
7:35 AM 55.4 °F 53.6 °F 94% 29.97 in 1.8 mi North 8.1 mph - N/A   Overcast
7:55 AM 55.4 °F 53.6 °F 94% 29.98 in 1.5 mi North 6.9 mph - N/A   Overcast
8:15 AM 55.4 °F 53.6 °F 94% 29.97 in 2.0 mi North 6.9 mph - N/A   Overcast
8:35 AM 57.2 °F 55.4 °F 94% 29.98 in 2.5 mi North 6.9 mph - N/A   Overcast
8:55 AM 57.2 °F 55.4 °F 94% 29.99 in 4.0 mi North 3.5 mph - N/A   Mostly Cloudy
9:15 AM 59.0 °F 57.2 °F 94% 29.99 in 7.0 mi North 4.6 mph - N/A   Scattered Clouds
9:35 AM 60.8 °F 57.2 °F 88% 29.99 in 10.0 mi North 5.8 mph - N/A   Partly Cloudy
9:55 AM 60.8 °F 57.2 °F 88% 29.99 in 10.0 mi North 4.6 mph - N/A   Clear
10:15 AM 62.6 °F 57.2 °F 82% 29.98 in 10.0 mi North 6.9 mph - N/A   Clear
10:35 AM 64.4 °F 55.4 °F 73% 29.98 in 10.0 mi NE 9.2 mph - N/A   Clear
11:15 AM 66.2 °F 55.4 °F 68% 29.99 in 10.0 mi ENE 8.1 mph - N/A   Clear
11:35 AM 66.2 °F 57.2 °F 73% 29.99 in 10.0 mi East 5.8 mph - N/A   Clear
11:55 AM 66.2 °F 57.2 °F 73% 29.99 in 10.0 mi NE 9.2 mph - N/A   Partly Cloudy
12:35 PM 68.0 °F 57.2 °F 68% 29.98 in 10.0 mi NE 9.2 mph - N/A   Clear
12:55 PM 68.0 °F 57.2 °F 68% 29.98 in 10.0 mi ENE 12.7 mph - N/A   Scattered Clouds
1:15 PM 68.0 °F 57.2 °F 68% 29.98 in 10.0 mi NE 6.9 mph - N/A   Partly Cloudy
1:35 PM 68.0 °F 57.2 °F 68% 29.99 in 10.0 mi NNE 9.2 mph - N/A   Scattered Clouds
1:55 PM 68.0 °F 57.2 °F 68% 29.99 in 10.0 mi NE 6.9 mph - N/A   Mostly Cloudy
2:15 PM 69.8 °F 59.0 °F 68% 29.98 in 10.0 mi NE 8.1 mph - N/A   Mostly Cloudy
2:35 PM 69.8 °F 59.0 °F 68% 29.97 in 10.0 mi North 9.2 mph - N/A   Scattered Clouds
4:15 PM 66.2 °F 60.8 °F 83% 29.96 in 10.0 mi North 9.2 mph - N/A   Overcast
4:35 PM 66.2 °F 60.8 °F 83% 29.96 in 10.0 mi North 9.2 mph - N/A   Overcast
4:55 PM 66.2 °F 60.8 °F 83% 29.96 in 10.0 mi North 8.1 mph - N/A   Overcast
5:15 PM 68.0 °F 60.8 °F 78% 29.97 in 10.0 mi North 5.8 mph - N/A   Overcast
5:35 PM 68.0 °F 60.8 °F 78% 29.97 in 10.0 mi NNE 8.1 mph - N/A   Mostly Cloudy
5:55 PM 68.0 °F 60.8 °F 78% 29.96 in 10.0 mi NE 5.8 mph - N/A   Overcast
6:15 PM 69.8 °F 60.8 °F 73% 29.96 in 10.0 mi ENE 5.8 mph - N/A   Overcast
6:35 PM 69.8 °F 59.0 °F 68% 29.95 in 10.0 mi ENE 6.9 mph - N/A   Overcast
6:55 PM 68.0 °F 59.0 °F 73% 29.95 in 10.0 mi ENE 6.9 mph - N/A   Overcast
7:15 PM 66.2 °F 60.8 °F 83% 29.96 in 10.0 mi NE 5.8 mph - N/A   Mostly Cloudy
7:35 PM 66.2 °F 60.8 °F 83% 29.96 in 10.0 mi NE 4.6 mph - N/A   Overcast
7:55 PM 66.2 °F 59.0 °F 78% 29.97 in 10.0 mi NE 4.6 mph - N/A   Overcast
8:15 PM 66.2 °F 59.0 °F 78% 29.96 in 10.0 mi ENE 5.8 mph - N/A   Overcast
8:35 PM 66.2 °F 59.0 °F 78% 29.97 in 10.0 mi ENE 5.8 mph - N/A   Overcast
8:55 PM 66.2 °F 59.0 °F 78% 29.97 in 10.0 mi NE 4.6 mph - N/A   Overcast
9:15 PM 66.2 °F 59.0 °F 78% 29.98 in 10.0 mi Calm Calm - N/A   Overcast
9:35 PM 64.4 °F 59.0 °F 83% 29.99 in 10.0 mi NE 3.5 mph - N/A   Mostly Cloudy
9:55 PM 64.4 °F 59.0 °F 83% 29.99 in 10.0 mi ENE 4.6 mph - N/A   Overcast
10:15 PM 64.4 °F 59.0 °F 83% 29.98 in 10.0 mi NE 5.8 mph - N/A   Overcast
10:35 PM 64.4 °F 59.0 °F 83% 29.98 in 10.0 mi NE 5.8 mph - N/A   Mostly Cloudy
10:55 PM 62.6 °F 59.0 °F 88% 29.98 in 10.0 mi Calm Calm - N/A   Overcast
11:15 PM 62.6 °F 59.0 °F 88% 29.98 in 10.0 mi NE 5.8 mph - N/A   Mostly Cloudy
11:35 PM 62.6 °F 57.2 °F 82% 29.98 in 10.0 mi East 3.5 mph - N/A   Scattered Clouds
11:55 PM 60.8 °F 57.2 °F 88% 29.97 in 10.0 mi SE 4.6 mph - N/A   Mostly Cloudy